�������l�o���
Date,Time,MP-1(��Sv/h),MP-2(��Sv/h),MP-3(��Sv/h),MP-4(��Sv/h),MP-5(��Sv/h),MP-6(��Sv/h),MP-7(��Sv/h),MP-8(��Sv/h),����,����(m/s),���J
2021/05/29,00:00,0.614,0.904,0.576,1.099,0.781,0.370,0.638,0.600,�k�k��,3.8,��
2021/05/29,00:10,0.613,0.905,0.576,1.097,0.783,0.370,0.638,0.600,�k�k��,4.0,��
2021/05/29,00:20,0.613,0.903,0.578,1.098,0.783,0.371,0.639,0.600,�k�k��,4.1,�L
2021/05/29,00:30,0.615,0.904,0.576,1.097,0.782,0.370,0.638,0.600,�k�k��,3.2,�L
2021/05/29,00:40,0.614,0.904,0.578,1.096,0.781,0.371,0.637,0.602,�k�k��,3.4,��
2021/05/29,00:50,0.615,0.904,0.577,1.100,0.783,0.370,0.641,0.600,�k��,3.3,�L
2021/05/29,01:00,0.613,0.904,0.576,1.098,0.781,0.369,0.638,0.601,�k��,3.4,�L
2021/05/29,01:10,0.614,0.905,0.576,1.100,0.783,0.368,0.638,0.600,�k��,3.7,��
2021/05/29,01:20,0.615,0.904,0.575,1.096,0.782,0.371,0.639,0.602,�k��,3.7,��
2021/05/29,01:30,0.615,0.903,0.575,1.097,0.784,0.370,0.638,0.600,�k�k��,3.4,��
2021/05/29,01:40,0.613,0.904,0.576,1.096,0.783,0.369,0.640,0.600,�k�k��,3.6,��
2021/05/29,01:50,0.614,0.904,0.575,1.096,0.782,0.369,0.639,0.600,�k�k��,4.0,��
2021/05/29,02:00,0.614,0.903,0.576,1.098,0.785,0.369,0.639,0.602,�k��,4.7,��
2021/05/29,02:10,0.615,0.903,0.578,1.098,0.782,0.369,0.639,0.600,�k��,4.0,��
2021/05/29,02:20,0.613,0.902,0.579,1.097,0.782,0.370,0.639,0.601,�k�k��,4.5,��
2021/05/29,02:30,0.615,0.902,0.577,1.097,0.782,0.369,0.639,0.601,�k�k��,4.3,��
2021/05/29,02:40,0.613,0.904,0.575,1.096,0.782,0.370,0.640,0.602,�k�k��,4.1,��
2021/05/29,02:50,0.612,0.905,0.576,1.099,0.783,0.369,0.638,0.602,�k�k��,3.6,��
2021/05/29,03:00,0.613,0.902,0.577,1.095,0.784,0.369,0.638,0.602,�k�k��,3.7,��
2021/05/29,03:10,0.614,0.902,0.575,1.097,0.782,0.370,0.638,0.601,�k�k��,3.5,��
2021/05/29,03:20,0.612,0.903,0.576,1.097,0.784,0.369,0.638,0.600,�k,3.1,��
2021/05/29,03:30,0.613,0.904,0.575,1.100,0.782,0.370,0.637,0.602,�k,3.9,��
2021/05/29,03:40,0.613,0.904,0.576,1.098,0.781,0.371,0.639,0.602,�k,3.9,��
2021/05/29,03:50,0.615,0.903,0.576,1.098,0.783,0.369,0.639,0.601,�k,2.9,��
2021/05/29,04:00,0.613,0.904,0.577,1.097,0.783,0.369,0.640,0.601,�k,3.4,��
2021/05/29,04:10,0.610,0.902,0.576,1.098,0.783,0.370,0.640,0.600,�k�k��,4.3,��
2021/05/29,04:20,0.613,0.903,0.576,1.096,0.782,0.370,0.639,0.601,�k�k��,4.5,��
2021/05/29,04:30,0.613,0.903,0.576,1.099,0.783,0.369,0.639,0.602,�k�k��,4.4,��
2021/05/29,04:40,0.614,0.905,0.575,1.098,0.782,0.370,0.638,0.602,�k�k��,4.3,��
2021/05/29,04:50,0.612,0.903,0.575,1.099,0.782,0.368,0.638,0.602,�k�k��,3.9,��
2021/05/29,05:00,0.611,0.903,0.578,1.098,0.782,0.368,0.638,0.601,�k�k��,4.3,��
2021/05/29,05:10,0.613,0.901,0.576,1.096,0.781,0.370,0.638,0.599,�k�k��,3.7,��
2021/05/29,05:20,0.613,0.903,0.577,1.097,0.783,0.370,0.639,0.601,�k�k��,3.2,��
2021/05/29,05:30,0.612,0.904,0.576,1.098,0.780,0.370,0.638,0.600,�k�k��,3.6,��
2021/05/29,05:40,0.613,0.904,0.577,1.098,0.782,0.369,0.638,0.601,�k,2.8,��
2021/05/29,05:50,0.613,0.904,0.577,1.099,0.782,0.370,0.639,0.602,�k,2.9,��
2021/05/29,06:00,0.615,0.904,0.577,1.096,0.783,0.370,0.641,0.601,�k,2.2,��
2021/05/29,06:10,0.614,0.906,0.578,1.099,0.782,0.370,0.641,0.600,�k,2.0,��
2021/05/29,06:20,0.614,0.903,0.577,1.098,0.783,0.371,0.640,0.602,�k,1.7,��
2021/05/29,06:30,0.614,0.904,0.577,1.098,0.783,0.370,0.641,0.601,�k,1.2,��
2021/05/29,06:40,0.613,0.905,0.576,1.099,0.782,0.370,0.640,0.602,�k,1.9,��
2021/05/29,06:50,0.615,0.902,0.576,1.098,0.782,0.368,0.640,0.600,�k,2.3,��
2021/05/29,07:00,0.614,0.905,0.577,1.098,0.783,0.371,0.640,0.604,�k�k��,2.0,��
2021/05/29,07:10,0.615,0.903,0.577,1.100,0.784,0.369,0.638,0.603,�k�k��,1.9,��
2021/05/29,07:20,0.614,0.906,0.577,1.098,0.783,0.369,0.638,0.601,�k�k��,1.5,��
2021/05/29,07:30,0.615,0.907,0.578,1.099,0.782,0.370,0.638,0.601,�k��,1.1,��
2021/05/29,07:40,0.615,0.905,0.577,1.100,0.784,0.369,0.639,0.600,�k,1.5,��
2021/05/29,07:50,0.614,0.904,0.578,1.100,0.781,0.370,0.639,0.600,�k�k��,1.7,��
2021/05/29,08:00,0.616,0.904,0.577,1.099,0.784,0.369,0.639,0.600,�k�k��,1.7,��
2021/05/29,08:10,0.616,0.902,0.576,1.098,0.784,0.369,0.640,0.601,���k��,1.7,��
2021/05/29,08:20,0.614,0.902,0.577,1.099,0.783,0.369,0.638,0.600,�k��,2.5,��
2021/05/29,08:30,0.615,0.902,0.579,1.098,0.786,0.368,0.639,0.601,�k�k��,3.1,��
2021/05/29,08:40,0.612,0.901,0.577,1.098,0.784,0.369,0.638,0.598,�k��,3.5,��
2021/05/29,08:50,0.614,0.900,0.576,1.100,0.783,0.370,0.639,0.599,�k�k��,4.3,��
2021/05/29,09:00,0.614,0.902,0.577,1.098,0.782,0.369,0.638,0.599,�k�k��,3.5,��
2021/05/29,09:10,0.614,0.902,0.575,1.101,0.782,0.369,0.639,0.600,�k�k��,3.2,��
2021/05/29,09:20,0.614,0.902,0.576,1.100,0.784,0.369,0.640,0.599,�k��,2.9,��
2021/05/29,09:30,0.613,0.902,0.577,1.100,0.782,0.368,0.640,0.599,���k��,3.5,��
2021/05/29,09:40,0.613,0.899,0.576,1.100,0.782,0.368,0.641,0.599,�k��,2.8,��
2021/05/29,09:50,0.613,0.901,0.575,1.102,0.781,0.370,0.641,0.599,�k��,2.6,��
2021/05/29,10:00,0.614,0.902,0.577,1.100,0.782,0.369,0.641,0.600,���k��,2.2,��
2021/05/29,10:10,0.615,0.900,0.575,1.101,0.782,0.369,0.640,0.599,��,2.6,��
2021/05/29,10:20,0.614,0.904,0.575,1.101,0.784,0.369,0.641,0.598,��,2.0,��
2021/05/29,10:30,0.616,0.905,0.575,1.100,0.786,0.369,0.640,0.599,���쓌,2.3,��
2021/05/29,10:40,0.616,0.905,0.577,1.100,0.786,0.370,0.640,0.599,�쓌,2.2,��
2021/05/29,10:50,0.616,0.905,0.577,1.103,0.784,0.370,0.641,0.598,���쓌,2.8,��
2021/05/29,11:00,0.619,0.907,0.578,1.101,0.785,0.370,0.640,0.600,�쓌,3.4,��
2021/05/29,11:10,0.616,0.905,0.578,1.101,0.786,0.371,0.642,0.601,���쓌,2.9,��
2021/05/29,11:20,0.616,0.907,0.577,1.100,0.786,0.369,0.643,0.601,���쓌,3.2,��
2021/05/29,11:30,0.618,0.907,0.577,1.098,0.786,0.370,0.641,0.599,�쓌,4.1,��
2021/05/29,11:40,0.616,0.906,0.578,1.099,0.784,0.371,0.642,0.599,�쓌,3.3,��
2021/05/29,11:50,0.616,0.909,0.577,1.096,0.785,0.369,0.640,0.599,�쓌,2.6,��
2021/05/29,12:00,0.618,0.909,0.575,1.099,0.786,0.370,0.640,0.599,���쓌,2.5,��
2021/05/29,12:10,0.616,0.909,0.578,1.100,0.787,0.371,0.638,0.598,��쓌,3.2,��
2021/05/29,12:20,0.618,0.909,0.577,1.099,0.787,0.370,0.640,0.599,�쓌,4.2,��
2021/05/29,12:30,0.616,0.909,0.577,1.099,0.786,0.370,0.640,0.599,��쓌,4.0,��
2021/05/29,12:40,0.617,0.909,0.579,1.100,0.787,0.370,0.642,0.599,�쓌,3.4,��
2021/05/29,12:50,0.617,0.909,0.578,1.100,0.787,0.369,0.640,0.599,��쓌,4.4,��
2021/05/29,13:00,0.618,0.908,0.578,1.097,0.786,0.370,0.641,0.599,��쓌,2.9,��
2021/05/29,13:10,0.617,0.909,0.578,1.103,0.789,0.371,0.640,0.600,��쓌,3.4,��
2021/05/29,13:20,0.617,0.906,0.579,1.100,0.788,0.370,0.642,0.600,��쓌,4.2,��
2021/05/29,13:30,0.616,0.907,0.578,1.100,0.788,0.371,0.641,0.598,��쓌,4.2,��
2021/05/29,13:40,0.617,0.910,0.579,1.101,0.789,0.369,0.641,0.598,��,3.0,��
2021/05/29,13:50,0.616,0.908,0.577,1.102,0.786,0.371,0.641,0.599,��쓌,2.3,��
2021/05/29,14:00,0.618,0.907,0.577,1.101,0.790,0.370,0.641,0.600,��쓌,3.0,��
2021/05/29,14:10,0.618,0.909,0.577,1.102,0.789,0.371,0.641,0.600,��쓌,3.5,��
2021/05/29,14:20,0.617,0.910,0.577,1.100,0.790,0.370,0.641,0.599,��,4.0,��
2021/05/29,14:30,0.617,0.911,0.578,1.103,0.788,0.370,0.641,0.599,��쓌,3.8,��
2021/05/29,14:40,0.618,0.908,0.579,1.099,0.787,0.369,0.640,0.600,��쓌,4.8,��
2021/05/29,14:50,0.618,0.912,0.578,1.101,0.788,0.370,0.642,0.600,��쓌,5.1,��
2021/05/29,15:00,0.618,0.911,0.577,1.098,0.789,0.372,0.641,0.600,��쓌,3.9,��
2021/05/29,15:10,0.617,0.912,0.578,1.102,0.787,0.370,0.642,0.599,��쓌,4.6,��
2021/05/29,15:20,0.618,0.911,0.577,1.101,0.787,0.370,0.641,0.601,��쓌,4.2,��
2021/05/29,15:30,0.617,0.910,0.579,1.100,0.788,0.369,0.642,0.600,��쓌,4.8,��
2021/05/29,15:40,0.618,0.910,0.578,1.101,0.789,0.370,0.640,0.600,��,3.9,��
2021/05/29,15:50,0.618,0.912,0.577,1.101,0.790,0.371,0.639,0.598,��쓌,4.1,��
2021/05/29,16:00,0.619,0.913,0.578,1.102,0.792,0.370,0.641,0.599,��쓌,4.1,��
2021/05/29,16:10,0.620,0.911,0.577,1.100,0.788,0.371,0.641,0.600,��,4.6,��
2021/05/29,16:20,0.617,0.913,0.578,1.103,0.788,0.370,0.641,0.599,��,3.5,��
2021/05/29,16:30,0.617,0.915,0.578,1.102,0.787,0.369,0.642,0.599,��쐼,3.4,��
2021/05/29,16:40,0.618,0.911,0.578,1.103,0.789,0.370,0.642,0.598,��쐼,3.5,��
2021/05/29,16:50,0.618,0.910,0.579,1.102,0.789,0.370,0.641,0.598,��쐼,2.8,��
2021/05/29,17:00,0.618,0.913,0.580,1.104,0.787,0.370,0.641,0.598,��쐼,3.0,��
2021/05/29,17:10,0.616,0.913,0.579,1.105,0.789,0.371,0.641,0.599,��쐼,2.3,��
2021/05/29,17:20,0.618,0.912,0.580,1.104,0.788,0.370,0.642,0.602,��쐼,2.0,��
2021/05/29,17:30,0.617,0.915,0.581,1.106,0.789,0.371,0.640,0.600,�쐼,2.0,��
2021/05/29,17:40,0.618,0.914,0.581,1.105,0.787,0.371,0.641,0.600,�쐼,2.0,��
2021/05/29,17:50,0.617,0.914,0.581,1.106,0.791,0.371,0.642,0.600,���쐼,1.5,��
2021/05/29,18:00,0.619,0.914,0.582,1.105,0.789,0.371,0.642,0.600,���쐼,1.9,��
2021/05/29,18:10,0.617,0.916,0.581,1.105,0.791,0.372,0.643,0.601,��쐼,1.5,��
2021/05/29,18:20,0.619,0.916,0.582,1.104,0.792,0.371,0.643,0.603,��,0.6,��
2021/05/29,18:30,0.621,0.914,0.581,1.106,0.792,0.372,0.641,0.601,���쐼,0.6,��
2021/05/29,18:40,0.620,0.917,0.583,1.106,0.793,0.371,0.640,0.602,���쐼,0.6,��
2021/05/29,18:50,0.620,0.914,0.580,1.108,0.791,0.371,0.642,0.601,���쐼,1.2,��
2021/05/29,19:00,0.620,0.914,0.582,1.105,0.791,0.371,0.643,0.603,��,1.7,��
2021/05/29,19:10,0.620,0.915,0.582,1.108,0.789,0.372,0.641,0.602,���k��,1.9,��
2021/05/29,19:20,0.621,0.916,0.581,1.109,0.792,0.372,0.644,0.600,�k��,3.8,��
2021/05/29,19:30,0.622,0.914,0.583,1.105,0.792,0.372,0.644,0.602,�k��,4.0,��
2021/05/29,19:40,0.622,0.914,0.583,1.106,0.792,0.373,0.644,0.603,���k��,7.1,��
2021/05/29,19:50,0.619,0.913,0.581,1.107,0.791,0.373,0.642,0.602,���k��,7.3,��
2021/05/29,20:00,0.622,0.913,0.581,1.105,0.793,0.373,0.644,0.601,���k��,7.4,��
2021/05/29,20:10,0.619,0.913,0.581,1.106,0.792,0.373,0.644,0.603,���k��,6.6,��
2021/05/29,20:20,0.621,0.912,0.581,1.105,0.791,0.372,0.643,0.602,���k��,6.4,��
2021/05/29,20:30,0.621,0.912,0.582,1.106,0.791,0.372,0.643,0.601,���k��,5.4,��
2021/05/29,20:40,0.621,0.915,0.580,1.108,0.791,0.371,0.643,0.602,���k��,5.2,��
2021/05/29,20:50,0.620,0.915,0.581,1.109,0.792,0.373,0.644,0.601,�k��,5.7,��
2021/05/29,21:00,0.621,0.916,0.581,1.107,0.791,0.372,0.647,0.601,���k��,3.7,��
2021/05/29,21:10,0.619,0.914,0.581,1.107,0.792,0.371,0.644,0.602,�k��,3.4,��
2021/05/29,21:20,0.620,0.913,0.581,1.108,0.791,0.371,0.644,0.602,�k��,4.0,��
2021/05/29,21:30,0.620,0.912,0.582,1.106,0.791,0.370,0.642,0.601,���k��,3.9,��
2021/05/29,21:40,0.620,0.913,0.580,1.105,0.789,0.372,0.644,0.603,���k��,5.0,��
2021/05/29,21:50,0.618,0.912,0.581,1.105,0.791,0.373,0.644,0.602,���k��,4.9,��
2021/05/29,22:00,0.619,0.913,0.582,1.106,0.792,0.371,0.645,0.601,���k��,5.5,��
2021/05/29,22:10,0.621,0.912,0.582,1.107,0.793,0.373,0.644,0.601,���k��,5.2,��
2021/05/29,22:20,0.620,0.912,0.581,1.108,0.790,0.372,0.643,0.603,���k��,5.2,��
2021/05/29,22:30,0.620,0.912,0.581,1.110,0.792,0.373,0.642,0.602,���k��,4.8,��
2021/05/29,22:40,0.621,0.915,0.581,1.109,0.787,0.373,0.642,0.602,���k��,4.1,��
2021/05/29,22:50,0.621,0.914,0.582,1.109,0.793,0.372,0.643,0.602,���k��,5.4,��
2021/05/29,23:00,0.619,0.913,0.582,1.109,0.790,0.372,0.643,0.603,���k��,6.0,��
2021/05/29,23:10,0.622,0.914,0.580,1.106,0.790,0.373,0.644,0.604,��,6.7,��
2021/05/29,23:20,0.620,0.915,0.583,1.108,0.791,0.372,0.642,0.602,��,5.9,��
2021/05/29,23:30,0.620,0.915,0.581,1.105,0.790,0.370,0.642,0.601,���k��,4.4,��
2021/05/29,23:40,0.620,0.914,0.581,1.107,0.789,0.370,0.642,0.601,���k��,1.2,��
2021/05/29,23:50,0.619,0.913,0.582,1.108,0.790,0.373,0.641,0.602,���k��,2.3,��
